Location: *
(51.0333°S, 178.4667°E)
Time: 10:11:41
(UTC+00:00)

STARLINK-71 - Pass Details

Date: 15 November 2019
Orbit: 529 x 530 km, 53.0° (Epoch: 10 December)

Event Time Altitude Azimuth Distance (km) Brightness Sun altitude
Rises 11:15:24 0° 251° (WSW) 2,687 7.5 -20.1°
Reaches altitude 10° 11:17:38 10° 253° (WSW) 1,795 6.5 -20.1°
Maximum altitude 11:21:42 73° 337° (NNW) 564 3.4 -20.2°
Enters shadow 11:22:15 61° 33° (NNE) 611 3.5 -20.2°
